Location: Newark
(25.6108°S, 54.5803°W)
Time: 08:24:57
(UTC+00:00)

Hubble Space Telescope - Visible Passes

Search period start: 18 September 2020 00:00
Search period end: 28 September 2020 00:00
Orbit: 536 x 540 km, 28.5° (Epoch: 17 September)

Date Brightness Start Highest point End Pass type
(mag) Time Alt. Az. Time Alt. Az. Time Alt. Az.
18 Sep 1.4 22:37:24 10° NW 22:41:20 41° NNE 22:42:36 32° ENE visible
19 Sep 1.1 22:26:32 10° WNW 22:30:35 52° NNE 22:32:48 24° E visible
20 Sep 3.8 00:07:37 10° W 00:08:09 13° W 00:08:09 13° W visible
20 Sep 0.9 22:15:43 10° WNW 22:19:51 65° NNE 22:22:56 17° E visible
20 Sep 3.4 23:56:58 10° W 23:58:17 19° W 23:58:17 19° W visible
21 Sep 0.8 22:04:57 10° WNW 22:09:08 79° NNE 22:13:00 12° ESE visible
21 Sep 2.8 23:46:18 10° W 23:48:21 27° WSW 23:48:21 27° WSW visible
22 Sep 0.8 21:54:15 10° WNW 21:58:25 88° SSW 22:02:37 10° ESE visible
22 Sep 2.2 23:35:39 10° W 23:38:22 36° WSW 23:38:22 36° WSW visible
23 Sep 1.6 23:25:00 10° WSW 23:28:20 48° SW 23:28:20 48° SW visible
24 Sep 1.1 23:14:19 10° WSW 23:18:17 58° S 23:18:17 58° S visible
25 Sep 0.9 23:03:38 10° WSW 23:07:46 62° S 23:08:13 57° SE visible
26 Sep 0.9 22:52:56 10° WSW 22:57:06 68° S 22:58:09 46° ESE visible
27 Sep 0.8 22:42:14 10° WSW 22:46:25 76° S 22:48:06 35° E visible
